Change the Weather History Date:

Friday, September 6, 2013

  Actual Average Record
Temperature  
Mean Temperature 82 °F 78 °F  
Max Temperature 93 °F 90 °F 101 °F (1979)
Min Temperature 71 °F 67 °F 51 °F (1880)
Degree Days  
Heating Degree Days 0 0  
Month to date heating degree days 0 0  
Since 1 July heating degree days 0 0  
Cooling Degree Days 17 13  
Month to date cooling degree days 112 83  
Year to date cooling degree days 2390 2012  
Growing Degree Days 32 (Base 50)    
Moisture  
Dew Point 52 °F    
Average Humidity 36    
Maximum Humidity 50    
Minimum Humidity 21    
Precipitation  
Precipitation 0.00 in 0.05 in 1.25 in (2005)
Month to date precipitation T 0.31  
Year to date precipitation 5.30 6.63  
Snow  
Snow 0.00 in - - ()
Month to date snowfall 0.0  
Since 1 July snowfall T  
Since 1 September snowfall 0.0  
Snow Depth 0.00 in    
Sea Level Pressure  
Sea Level Pressure 29.89 in    
Wind  
Wind Speed 7 mph (ESE)    
Max Wind Speed 18 mph    
Max Gust Speed 23 mph    
Visibility 10 miles    
Events      
T = Trace of Precipitation, MM = Missing Value Source: NWS Daily Summary

Daily Weather History Graph

Daily Weather History Graph

Search for Another Location

Airport or City:

Trip Planner

Search our weather history database for the weather conditions in past years. The results will help you decide how hot, cold, wet, or windy it might be!

Date:

Astronomy

Sep. 06, 2013 Rise Set
Actual Time 6:44 AM MDT 7:22 PM MDT
Civil Twilight 6:19 AM MDT 7:47 PM MDT
Nautical Twilight 5:50 AM MDT 8:16 PM MDT
Astronomical Twilight 5:20 AM MDT 8:45 PM MDT
Moon 7:51 AM MDT (9/6) 7:58 PM MDT (9/6)
Length of Visible Light 13h 27m
Length of Day
12h 38m
New Moon, 2% of the Moon is Illuminated
Sep 6
New Moon
Sep 12
First Quarter
Sep 19
Full
Sep 26
Last Quarter
Oct 4
New

Hourly Weather History & Observations

Time (MDT) Temp. Heat Index Dew Point Humidity Pressure Visibility Wind Dir Wind Speed Gust Speed Precip Events Conditions
12:51 AM 82.9 °F 81.8 °F 53.1 °F 36% 29.91 in 10.0 mi ESE 12.7 mph - N/A   Overcast
1:51 AM 81.0 °F 80.4 °F 53.1 °F 38% 29.91 in 10.0 mi ESE 10.4 mph - N/A   Mostly Cloudy
2:51 AM 80.1 °F 80.0 °F 54.0 °F 40% 29.91 in 10.0 mi ESE 6.9 mph - N/A   Scattered Clouds
3:51 AM 77.0 °F - 54.0 °F 45% 29.92 in 10.0 mi Calm Calm - N/A   Scattered Clouds
4:51 AM 77.0 °F - 55.0 °F 47% 29.91 in 10.0 mi Calm Calm - N/A   Mostly Cloudy
5:51 AM 75.9 °F - 55.0 °F 48% 29.92 in 10.0 mi NNE 5.8 mph - N/A   Mostly Cloudy
6:51 AM 71.1 °F - 48.9 °F 45% 29.96 in 10.0 mi North 5.8 mph - N/A   Scattered Clouds
7:51 AM 73.0 °F - 51.1 °F 46% 29.98 in 10.0 mi North 5.8 mph - N/A   Mostly Cloudy
8:51 AM 75.0 °F - 52.0 °F 44% 29.99 in 10.0 mi Calm Calm - N/A   Scattered Clouds
9:51 AM 80.1 °F 79.9 °F 53.1 °F 39% 29.99 in 10.0 mi Calm Calm - N/A   Scattered Clouds
10:51 AM 84.0 °F 82.6 °F 54.0 °F 35% 29.97 in 10.0 mi SE 5.8 mph - N/A   Partly Cloudy
11:51 AM 87.1 °F 85.1 °F 54.0 °F 32% 29.94 in 10.0 mi NNE 4.6 mph - N/A   Partly Cloudy
12:51 PM 89.1 °F - 51.1 °F 27% 29.92 in 10.0 mi ESE 15.0 mph 21.9 mph N/A   Partly Cloudy
1:51 PM 89.1 °F - 50.0 °F 26% 29.89 in 10.0 mi East 8.1 mph 18.4 mph N/A   Scattered Clouds
2:51 PM 91.9 °F - 50.0 °F 24% 29.85 in 10.0 mi SE 10.4 mph - N/A   Scattered Clouds
3:51 PM 91.9 °F - 50.0 °F 24% 29.83 in 10.0 mi ESE 16.1 mph 21.9 mph N/A   Scattered Clouds
4:51 PM 90.0 °F - 50.0 °F 25% 29.81 in 10.0 mi SE 8.1 mph - N/A   Scattered Clouds
5:51 PM 91.0 °F - 46.9 °F 22% 29.79 in 10.0 mi ESE 6.9 mph 17.3 mph N/A   Scattered Clouds
6:51 PM 90.0 °F - 48.9 °F 24% 29.81 in 10.0 mi ESE 6.9 mph - N/A   Scattered Clouds
7:51 PM 88.0 °F - 48.9 °F 26% 29.81 in 10.0 mi SSE 8.1 mph - N/A   Scattered Clouds
8:51 PM 84.9 °F - 48.9 °F 29% 29.83 in 10.0 mi ESE 6.9 mph - N/A   Scattered Clouds
9:51 PM 86.0 °F - 50.0 °F 29% 29.84 in 10.0 mi ESE 11.5 mph - N/A   Scattered Clouds
10:51 PM 82.9 °F - 52.0 °F 34% 29.85 in 10.0 mi East 10.4 mph - N/A   Scattered Clouds
11:51 PM 82.0 °F - 52.0 °F 35% 29.86 in 10.0 mi ESE 11.5 mph - N/A   Scattered Clouds